Temperature
19 18 18 18 18 18 18 18 18 18 18 18 17 17 17 17 17 17 17 17 17 17 17 17 17 17 17 16 16 16 16 16 16 16 16 15 15 15 15 15 15 15 15
19 18 18 18 18 18 18 17 17 17 17 17 17 17 17 17 17 17 17 17 17 17 17 17 17 17 17 16 16 16 16 16 16 15 15 15 15 15 15 15 15 15 15
18 18 18 18 17 17 17 17 17 17 17 17 17 17 17 17 17 17 17 16 16 16 16 16 16 16 16 16 16 16 16 16 15 15 15 15 15 15 15 15 15 15 14
18 18 18 18 18 17 17 17 17 17 17 17 17 17 17 17 16 16 16 16 16 16 16 16 16 16 16 16 16 16 16 15 15 15 15 15 14 14 14 14 14 14 14
18 18 18 18 18 17 17 17 17 17 17 17 16 16 16 16 16 16 16 16 16 16 16 16 16 16 16 16 16 15 15 15 15 15 15 14 14 14 14 14 14 14 14
18 18 18 18 17 17 17 17 17 17 16 16 16 16 16 16 16 16 16 16 16 16 16 16 16 16 16 15 15 15 15 15 15 15 14 14 14 14 14 14 14 14 13
17 17 17 17 17 17 17 16 16 16 16 16 16 16 16 16 15 15 15 15 15 15 15 15 15 15 15 15 15 15 15 15 14 14 14 14 14 14 14 14 14 13 13
17 17 17 17 17 16 16 16 16 16 16 16 16 16 15 15 15 15 15 15 15 15 15 15 15 15 15 15 15 15 15 14 14 14 14 14 14 14 14 14 13 13 13
17 17 17 16 16 16 16 16 16 15 15 15 15 15 15 15 15 15 15 15 15 14 14 14 14 14 14 14 14 14 14 14 14 14 14 14 14 13 13 13 13 13 13
16 16 16 16 16 16 16 16 15 15 15 15 15 15 15 15 15 14 14 14 14 14 14 14 14 14 14 14 14 14 14 14 14 14 14 14 13 13 13 13 13 13 13
16 16 16 16 15 15 15 15 15 15 15 15 14 14 14 14 14 14 14 14 14 14 14 14 14 14 13 13 13 13 13 13 13 13 13 13 13 13 13 13 12 12 12
16 16 15 15 15 15 15 15 15 14 14 14 14 14 14 14 14 14 14 14 14 14 14 14 13 13 13 13 13 13 13 13 13 13 12 12 12 12 12 12 12 12 12
15 15 15 15 15 14 14 14 14 14 14 14 14 14 14 14 14 13 13 13 13 13 13 13 13 13 13 13 13 13 13 13 12 12 12 12 12 12 12 12 12 11 11
15 15 14 14 14 14 14 14 14 13 13 13 13 13 13 13 13 13 13 13 13 13 13 13 13 13 12 12 12 12 12 12 12 12 12 12 12 11 11 11 11 11 11
14 14 14 14 14 14 14 13 13 13 13 13 13 13 13 13 13 13 13 13 13 12 12 12 12 12 12 12 12 12 12 11 11 11 11 11 11 11 11 11 11 11 11
14 14 14 14 14 13 13 13 13 13 13 13 13 13 13 13 13 12 12 12 12 12 12 12 12 12 12 11 11 11 11 11 11 11 11 11 10 10 10 10 10 10 10
13 13 13 13 13 13 13 13 13 13 12 12 12 12 12 12 12 12 12 12 12 12 12 12 11 11 11 11 11 11 11 11 11 10 10 10 10 10 10 10 10 10 10
13 13 13 13 13 13 13 13 13 12 12 12 12 12 12 12 12 12 12 12 12 11 11 11 11 11 11 10 10 10 10 10 10 10 10 9 9 9 9 9 9 9 9
13 13 13 13 13 12 12 12 12 12 12 12 12 12 12 12 11 11 11 11 11 11 11 11 10 10 10 10 10 10 10 10 10 9 9 9 9 9 9 9 9 9 9
12 13 12 12 12 12 12 12 12 12 12 12 11 11 11 11 11 11 11 11 11 11 10 10 10 10 10 10 10 9 9 9 9 9 9 9 9 9 9 9 8 8 8
12 12 12 12 12 12 12 12 12 12 11 11 11 11 11 11 11 11 11 10 10 10 10 10 10 10 9 9 9 9 9 9 9 9 8 8 8 8 8 8 8 8 8
12 12 12 12 11 11 12 12 11 11 11 11 11 11 11 11 10 10 10 10 10 10 9 9 9 9 9 9 9 9 9 9 9 8 8 8 8 8 8 8 7 7 7
11 11 11 11 11 11 11 11 11 11 11 11 11 11 10 10 10 10 10 10 10 9 9 9 9 9 9 9 9 8 8 8 8 8 8 8 8 8 7 7 7 7 7
11 11 11 11 11 11 11 11 11 11 11 11 10 10 10 10 10 10 10 10 9 9 9 9 9 9 9 8 8 8 8 8 8 8 7 7 7 7 7 7 7 7 6
11 11 11 11 11 10 10 10 10 10 10 10 10 10 10 10 9 9 9 9 9 9 9 9 9 9 8 8 8 8 8 8 7 7 7 7 7 7 7 7 6 6 6
11 11 11 10 10 10 10 10 10 10 10 10 10 10 10 9 9 9 9 9 9 9 9 9 9 8 8 8 8 8 8 8 7 7 7 7 7 7 6 6 6 6 6
Wind_Speed
3 3 4 4 4 3 4 4 4 4 3 4 4 4 4 4 3 3 4 3 4 4 3 4 5 4 3 3 3 3 3 3 4 3 2 1 1 2 1 1 2 2 3
4 4 4 3 3 3 4 4 4 4 4 4 4 4 5 4 3 4 4 4 4 5 4 4 5 3 3 3 3 3 3 4 4 4 2 1 2 2 1 1 1 1 2
4 4 4 3 3 4 4 4 3 3 4 4 4 4 5 5 5 5 5 5 5 5 5 5 5 4 4 3 3 3 3 3 3 3 3 1 1 1 0 0 0 0 1
4 4 4 4 4 5 4 3 3 3 3 3 3 4 4 5 5 5 5 5 5 5 5 4 4 5 5 4 4 4 3 3 3 3 2 1 1 1 1 1 1 1 1
4 4 5 4 4 3 3 3 2 2 3 3 3 3 3 4 4 4 4 5 5 4 4 4 4 4 5 4 4 4 4 3 3 3 3 2 2 1 2 2 2 1 1
4 5 4 3 3 3 3 3 2 2 2 2 3 3 3 4 4 4 4 4 4 4 4 4 4 4 4 5 5 5 5 5 5 4 4 4 5 4 3 3 2 2 2
4 4 4 3 3 3 3 2 2 3 2 2 3 3 3 4 4 3 3 3 3 4 4 4 3 3 3 3 3 4 4 5 6 6 6 6 5 5 4 4 4 3 4
3 4 3 3 3 3 3 2 3 2 2 3 3 3 3 4 3 3 3 3 3 3 4 4 4 3 2 2 3 3 3 4 5 5 6 6 5 5 5 5 5 3 1
3 3 3 3 3 2 2 3 2 2 2 2 2 2 2 4 3 2 1 2 2 3 3 3 3 3 4 3 3 3 3 3 2 2 3 4 4 4 4 3 3 3 2
3 3 3 3 3 3 3 3 2 1 2 2 2 2 2 3 3 2 1 1 2 2 2 2 2 3 3 2 3 4 3 3 1 1 1 1 1 2 4 5 5 4 2
2 2 2 2 3 3 3 1 1 1 0 1 1 2 2 2 2 2 1 2 2 2 2 3 3 3 3 2 2 3 4 3 2 1 1 1 1 1 1 3 4 4 4
1 1 2 2 2 1 1 1 1 1 0 1 1 2 2 2 2 2 2 2 2 2 3 3 3 2 2 2 2 2 2 2 1 1 0 1 1 1 1 2 3 3 3
1 1 1 1 1 1 2 2 1 1 1 1 2 2 3 2 2 2 2 2 2 2 2 3 2 2 1 1 0 1 2 1 1 1 1 2 2 2 1 1 0 0 0
1 1 1 1 1 0 1 1 1 1 1 2 2 2 2 2 2 1 1 1 1 1 1 1 1 1 1 1 1 1 1 0 1 1 1 1 1 1 1 1 0 0 0
0 0 0 1 1 0 0 1 2 3 3 3 3 3 3 3 4 2 1 1 1 1 0 1 2 2 1 2 2 1 1 1 1 1 1 1 1 1 1 1 0 0 1
1 1 0 0 0 0 0 1 2 1 1 2 4 4 3 3 2 1 1 1 0 1 2 1 1 1 1 0 0 1 1 1 0 0 1 1 1 1 1 1 1 0 0
1 0 0 0 0 1 1 1 1 2 2 2 1 1 2 1 1 0 0 1 2 3 2 1 1 0 0 0 0 0 1 1 1 0 1 0 0 0 0 1 1 1 1
1 0 0 1 1 1 1 1 1 1 1 2 3 2 2 2 1 1 1 3 2 2 1 1 1 1 1 0 0 0 1 1 1 1 1 0 0 0 0 1 1 1 2
0 0 0 0 0 0 0 0 0 0 0 1 2 3 3 3 4 4 3 2 1 1 1 1 1 1 1 1 0 0 0 0 1 1 0 1 1 1 1 1 1 2 1
0 0 0 0 0 1 1 0 0 0 0 1 1 1 2 3 3 2 2 1 1 1 1 1 1 1 1 1 0 0 0 1 1 1 1 1 1 1 1 1 1 1 2
0 1 1 1 0 0 0 0 0 1 0 0 1 1 1 1 1 0 1 1 0 0 0 1 1 1 1 1 1 1 1 1 1 2 2 2 2 1 1 1 2 2 2
1 0 0 0 0 0 0 1 1 1 1 1 1 1 2 1 0 0 1 1 1 1 1 1 1 1 1 1 1 1 2 2 2 2 2 2 2 2 1 1 1 2 2
1 1 0 0 1 1 0 0 0 0 1 0 0 1 1 0 0 1 1 2 1 1 1 1 1 1 1 1 1 2 2 2 2 2 2 2 2 2 1 2 2 2 2
1 1 1 1 1 1 1 1 1 1 1 1 1 0 1 1 1 1 2 2 1 1 1 1 1 1 1 1 1 1 1 2 2 2 3 3 3 2 2 2 3 3 3
1 1 1 1 1 2 2 2 2 2 1 1 1 1 1 2 2 2 2 1 1 1 1 1 1 1 1 1 1 1 2 2 2 2 2 2 3 3 3 3 3 3 3
1 1 1 1 2 2 2 2 2 2 2 2 2 2 2 2 2 2 2 1 1 1 1 1 1 2 2 2 2 2 2 2 2 2 2 2 3 3 3 3 3 3 3
Wind_Direction
199 211 227 232 223 222 229 238 247 255 253 252 249 242 244 245 240 229 238 233 235 245 241 235 241 228 223 226 215 208 211 207 235 264 257 280 261 266 291 225 228 220 229
206 211 224 233 228 229 243 251 249 254 259 256 249 241 243 244 236 232 239 242 236 241 241 238 243 233 224 222 216 218 216 211 214 245 256 247 251 250 243 231 236 221 221
203 207 215 222 227 236 243 250 251 260 269 266 251 245 246 244 238 235 233 238 238 238 236 235 239 227 231 227 218 220 222 219 212 220 242 235 247 242 219 272 285 288 232
198 201 210 219 225 235 240 245 247 252 262 259 253 252 251 247 244 240 233 236 240 241 237 231 229 224 227 223 222 224 219 214 208 211 226 236 244 260 190 204 257 263 261
196 208 220 222 222 227 233 239 240 242 254 255 257 262 260 251 251 246 239 238 239 242 239 232 232 227 225 219 220 216 210 214 211 214 224 221 234 240 233 214 226 245 260
204 218 226 220 224 233 240 241 241 246 256 258 255 257 265 266 274 255 240 244 235 231 239 244 244 236 234 229 223 214 205 210 215 217 226 225 235 231 222 211 207 217 250
204 220 222 215 220 231 234 230 239 245 249 260 260 256 265 273 277 266 251 245 240 235 233 241 254 261 238 232 231 226 223 220 211 211 222 229 229 225 213 217 217 221 230
210 220 218 216 224 230 228 225 239 247 244 250 260 258 262 281 282 268 260 249 248 246 240 236 242 259 250 232 230 236 242 240 232 221 223 227 226 223 211 209 211 215 229
220 223 213 207 211 219 232 239 236 236 247 249 260 254 259 281 284 274 261 257 260 269 264 254 244 253 261 236 214 225 247 268 272 237 228 223 217 205 185 164 169 177 222
222 224 208 193 194 203 215 227 223 227 245 254 277 267 254 270 284 272 224 233 259 272 280 276 265 261 270 236 210 208 223 251 265 302 313 277 218 195 182 187 186 188 202
224 221 218 208 206 203 197 199 180 180 298 322 304 293 278 271 281 277 220 207 236 254 266 275 274 268 268 256 215 209 222 225 217 210 244 299 294 240 208 194 195 197 204
181 200 226 229 225 197 173 169 138 146 128 324 313 312 307 296 293 305 298 254 245 238 258 270 271 264 258 253 225 219 188 167 175 168 202 285 287 274 262 228 207 208 217
176 221 243 241 234 188 177 168 142 155 189 267 265 279 298 305 314 317 314 296 278 248 265 284 291 283 255 225 221 116 130 140 163 183 238 266 276 281 286 270 293 192 278
197 224 219 212 241 170 191 185 180 206 222 249 258 264 276 287 299 311 314 304 307 291 288 331 20 45 57 63 55 49 37 101 156 221 260 288 331 355 360 343 289 268 297
318 203 199 206 192 170 293 276 240 234 219 224 243 244 249 267 268 245 220 252 262 249 128 68 55 59 47 40 38 30 32 47 42 15 30 36 21 11 353 351 332 244 221
48 7 352 39 91 169 218 349 353 286 251 230 234 232 243 243 259 245 237 222 212 147 119 124 112 115 116 90 61 5 4 7 360 38 56 55 51 23 354 357 6 21 298
123 301 268 151 179 194 194 197 322 355 21 34 310 261 244 258 263 255 216 125 118 130 127 145 160 204 185 105 109 315 308 317 328 96 86 43 35 39 7 349 345 338 328
37 61 157 213 220 198 193 212 217 227 334 345 358 11 14 22 25 35 102 110 92 104 136 148 190 220 207 201 237 278 286 344 8 13 24 2 337 301 314 311 311 319 320
35 338 20 133 114 89 113 162 167 158 267 335 0 13 31 44 41 46 90 105 135 147 138 155 181 207 221 219 250 282 285 298 311 312 331 312 281 259 272 279 290 293 298
301 344 45 71 63 64 83 87 78 79 28 1 349 356 41 57 51 40 49 59 84 122 157 179 200 218 222 213 225 246 299 319 313 292 281 278 277 264 259 267 275 280 287
338 3 27 34 359 325 52 181 165 142 138 335 323 357 112 99 88 35 14 33 25 263 230 220 227 239 236 220 226 232 247 264 266 268 270 267 269 273 274 265 260 262 272
189 208 183 267 308 310 303 259 220 199 214 254 329 40 92 92 105 332 305 304 295 273 253 228 241 260 251 240 227 225 241 255 262 265 260 256 257 271 277 269 260 259 259
181 204 254 272 277 291 290 318 283 233 246 269 12 58 74 10 285 280 285 294 301 299 289 239 242 274 279 267 258 240 240 251 259 256 252 252 249 249 256 269 273 277 273
200 214 230 252 256 253 250 268 274 253 243 247 261 254 238 250 266 276 282 295 298 290 286 262 249 264 293 304 294 263 257 262 256 246 242 246 250 253 249 253 261 266 269
207 215 221 223 229 238 239 247 254 252 248 246 249 251 254 264 278 283 281 282 281 302 324 317 292 275 269 265 271 275 280 267 245 239 242 237 243 249 248 248 256 268 273
220 222 226 223 227 235 234 239 244 244 246 250 251 250 255 268 280 284 282 283 284 293 302 304 292 285 282 276 281 293 285 271 261 247 235 227 232 246 249 249 253 259 267
Height
1514 1516 1517 1518 1518 1519 1519 1519 1520 1521 1521 1521 1521 1522 1522 1522 1523 1523 1523 1523 1523 1523 1523 1523 1523 1523 1523 1523 1523 1523 1523 1523 1522 1522 1523 1523 1523 1523 1523 1523 1522 1522 1522
1511 1512 1513 1514 1515 1515 1516 1516 1516 1517 1517 1517 1517 1517 1517 1518 1518 1519 1519 1519 1519 1519 1520 1520 1520 1520 1520 1520 1519 1519 1519 1520 1520 1519 1519 1520 1520 1520 1520 1519 1519 1519 1519
1508 1509 1510 1511 1511 1511 1512 1512 1512 1513 1513 1513 1513 1513 1513 1514 1514 1514 1515 1515 1516 1516 1516 1516 1516 1517 1516 1516 1516 1516 1516 1516 1516 1516 1516 1516 1516 1517 1516 1516 1516 1516 1516
1505 1506 1506 1507 1507 1507 1508 1508 1508 1508 1508 1509 1509 1508 1509 1509 1510 1510 1511 1511 1512 1512 1512 1512 1513 1513 1513 1513 1513 1513 1513 1513 1513 1512 1512 1512 1512 1513 1513 1512 1512 1513 1513
1502 1502 1503 1503 1503 1504 1504 1504 1504 1504 1504 1504 1504 1504 1504 1505 1505 1506 1506 1507 1507 1508 1508 1508 1508 1509 1509 1509 1509 1509 1509 1509 1509 1509 1508 1508 1508 1508 1508 1508 1508 1508 1509
1498 1499 1500 1500 1500 1500 1500 1500 1500 1500 1500 1500 1500 1500 1500 1501 1501 1502 1502 1502 1503 1503 1504 1504 1504 1505 1505 1505 1505 1505 1505 1505 1505 1505 1504 1504 1504 1504 1504 1505 1504 1504 1504
1495 1495 1497 1497 1497 1496 1497 1496 1496 1496 1496 1497 1497 1497 1497 1497 1498 1498 1498 1499 1499 1499 1500 1500 1500 1501 1501 1501 1501 1501 1501 1501 1501 1501 1501 1501 1501 1501 1501 1501 1501 1501 1501
1491 1492 1492 1493 1493 1493 1493 1493 1493 1493 1493 1493 1494 1494 1494 1494 1494 1494 1495 1495 1495 1495 1496 1496 1496 1497 1497 1497 1497 1497 1497 1497 1497 1497 1498 1497 1498 1498 1497 1497 1497 1497 1497
1489 1488 1489 1489 1490 1490 1490 1490 1490 1490 1490 1490 1491 1491 1491 1491 1491 1491 1491 1491 1491 1491 1492 1492 1492 1492 1493 1493 1493 1493 1493 1493 1494 1494 1494 1494 1494 1494 1494 1493 1493 1493 1493
1485 1485 1486 1486 1487 1486 1486 1487 1487 1487 1487 1488 1488 1488 1488 1488 1488 1488 1488 1488 1488 1488 1488 1488 1488 1489 1489 1489 1489 1489 1489 1489 1490 1490 1490 1491 1490 1490 1490 1490 1490 1490 1490
1484 1484 1484 1484 1484 1484 1484 1484 1484 1484 1485 1485 1486 1486 1486 1486 1486 1486 1485 1485 1485 1485 1485 1485 1485 1485 1485 1486 1486 1486 1486 1486 1487 1487 1486 1486 1487 1487 1487 1486 1486 1487 1487
1482 1482 1482 1482 1482 1482 1482 1482 1482 1483 1483 1483 1483 1483 1483 1483 1483 1483 1483 1483 1482 1482 1482 1482 1482 1482 1483 1483 1483 1483 1483 1483 1483 1483 1483 1483 1483 1483 1483 1483 1483 1484 1484
1480 1480 1480 1480 1480 1480 1480 1480 1480 1480 1481 1481 1481 1480 1480 1480 1480 1481 1481 1480 1480 1480 1480 1480 1480 1480 1480 1480 1481 1481 1481 1480 1480 1480 1480 1480 1480 1480 1481 1481 1480 1480 1480
1479 1479 1478 1478 1479 1479 1478 1478 1478 1478 1478 1478 1478 1478 1477 1478 1478 1478 1478 1478 1478 1478 1478 1478 1478 1478 1478 1478 1478 1478 1478 1478 1477 1477 1477 1478 1478 1478 1478 1478 1478 1478 1478
1477 1477 1477 1477 1477 1477 1476 1477 1477 1476 1476 1477 1476 1476 1475 1475 1475 1475 1476 1476 1476 1476 1476 1476 1476 1476 1475 1475 1475 1475 1476 1475 1475 1475 1475 1475 1475 1475 1475 1475 1475 1475 1475
1476 1475 1476 1476 1475 1475 1475 1475 1475 1475 1475 1475 1475 1474 1473 1473 1473 1474 1474 1474 1474 1474 1474 1474 1474 1473 1473 1473 1473 1473 1473 1473 1473 1473 1473 1473 1473 1473 1473 1473 1473 1473 1473
1476 1475 1475 1475 1475 1475 1474 1474 1473 1474 1474 1473 1473 1472 1472 1472 1472 1472 1472 1472 1472 1472 1472 1472 1472 1472 1472 1472 1472 1472 1472 1472 1472 1471 1471 1471 1471 1471 1471 1471 1471 1471 1470
1475 1475 1475 1475 1474 1474 1473 1473 1473 1472 1472 1471 1471 1471 1471 1470 1470 1470 1470 1469 1469 1470 1470 1470 1470 1471 1470 1470 1470 1470 1471 1471 1470 1470 1470 1470 1469 1469 1469 1469 1469 1469 1469
1474 1474 1474 1474 1473 1473 1472 1472 1471 1471 1471 1471 1470 1470 1470 1470 1469 1469 1468 1468 1467 1468 1468 1469 1469 1469 1469 1469 1469 1469 1469 1469 1469 1469 1469 1469 1468 1468 1467 1467 1468 1467 1467
1474 1473 1473 1473 1472 1472 1471 1471 1470 1470 1470 1470 1469 1469 1469 1468 1468 1468 1468 1467 1467 1467 1467 1467 1468 1468 1468 1468 1468 1468 1468 1468 1468 1468 1467 1467 1467 1466 1466 1466 1466 1465 1465
1473 1472 1472 1472 1472 1471 1471 1470 1469 1469 1469 1469 1468 1468 1468 1467 1467 1467 1467 1467 1466 1466 1466 1466 1466 1466 1466 1466 1466 1466 1466 1466 1466 1466 1466 1465 1465 1465 1464 1464 1464 1463 1463
1472 1472 1471 1471 1471 1470 1470 1469 1469 1468 1468 1468 1467 1467 1467 1467 1466 1466 1466 1466 1466 1465 1465 1464 1464 1464 1464 1464 1464 1464 1464 1463 1463 1463 1463 1463 1463 1463 1462 1462 1461 1460 1460
1470 1470 1469 1469 1469 1469 1468 1468 1467 1467 1466 1466 1466 1466 1466 1465 1465 1465 1465 1465 1464 1464 1463 1463 1463 1463 1462 1462 1462 1461 1461 1461 1461 1461 1461 1460 1460 1460 1460 1459 1458 1458 1457
1468 1468 1467 1467 1467 1467 1467 1466 1465 1465 1465 1465 1464 1464 1464 1464 1464 1463 1464 1463 1463 1462 1462 1461 1461 1461 1460 1460 1460 1459 1459 1459 1459 1459 1458 1458 1457 1457 1456 1456 1455 1455 1454
1466 1466 1465 1465 1465 1465 1464 1464 1464 1463 1463 1463 1463 1463 1463 1463 1462 1462 1462 1462 1461 1461 1460 1460 1459 1459 1459 1458 1458 1457 1457 1456 1456 1456 1455 1455 1454 1454 1453 1452 1452 1451 1451
1464 1464 1463 1463 1463 1463 1462 1462 1461 1461 1461 1461 1461 1461 1461 1461 1460 1460 1460 1459 1459 1458 1458 1458 1457 1457 1456 1456 1455 1455 1454 1454 1453 1452 1452 1451 1451 1450 1449 1449 1448 1448 1448